Year,Month,Day,Hour,Minute,Value (Times are PST for temperature in C)
2014,09,24,00,00,14.60
2014,09,24,00,01,14.60
2014,09,24,00,02,14.60
2014,09,24,00,03,14.50
2014,09,24,00,04,14.60
2014,09,24,00,05,14.60
2014,09,24,00,06,14.60
2014,09,24,00,07,14.60
2014,09,24,00,08,14.60
2014,09,24,00,09,14.60
2014,09,24,00,10,14.60
2014,09,24,00,11,14.60
2014,09,24,00,12,14.60
2014,09,24,00,13,14.60
2014,09,24,00,14,14.60
2014,09,24,00,15,14.60
2014,09,24,00,16,14.60
2014,09,24,00,17,14.60
2014,09,24,00,18,14.60
2014,09,24,00,19,14.60
2014,09,24,00,20,14.60
2014,09,24,00,21,14.60
2014,09,24,00,22,14.60
2014,09,24,00,23,14.60
2014,09,24,00,24,14.60
2014,09,24,00,25,14.60
2014,09,24,00,26,14.60
2014,09,24,00,27,14.60
2014,09,24,00,28,14.70
2014,09,24,00,29,14.70
2014,09,24,00,30,14.70
2014,09,24,00,31,14.70
2014,09,24,00,32,14.70
2014,09,24,00,33,14.70
2014,09,24,00,34,14.70
2014,09,24,00,35,14.70
2014,09,24,00,36,14.70
2014,09,24,00,37,14.70
2014,09,24,00,38,14.70
2014,09,24,00,39,14.70
2014,09,24,00,40,14.70
2014,09,24,00,41,14.80
2014,09,24,00,42,14.80
2014,09,24,00,43,14.80
2014,09,24,00,44,14.80
2014,09,24,00,45,14.80
2014,09,24,00,46,14.80
2014,09,24,00,47,14.80
2014,09,24,00,48,14.80
2014,09,24,00,49,14.80
2014,09,24,00,50,14.90
2014,09,24,00,51,14.90
2014,09,24,00,52,14.90
2014,09,24,00,53,14.90
2014,09,24,00,54,14.90
2014,09,24,00,55,14.90
2014,09,24,00,56,14.90
2014,09,24,00,57,14.90
2014,09,24,00,58,14.90
2014,09,24,00,59,14.90
2014,09,24,01,00,14.90
2014,09,24,01,01,14.90
2014,09,24,01,02,14.90
2014,09,24,01,03,14.90
2014,09,24,01,04,15.00
2014,09,24,01,05,15.00
2014,09,24,01,06,15.00
2014,09,24,01,07,15.00
2014,09,24,01,08,15.00
2014,09,24,01,09,15.00
2014,09,24,01,10,15.00
2014,09,24,01,11,15.00
2014,09,24,01,12,15.00
2014,09,24,01,13,15.00
2014,09,24,01,14,15.00
2014,09,24,01,15,15.00
2014,09,24,01,16,15.00
2014,09,24,01,17,15.00
2014,09,24,01,18,15.00
2014,09,24,01,19,15.00
2014,09,24,01,20,15.00
2014,09,24,01,21,15.00
2014,09,24,01,22,15.00
2014,09,24,01,23,15.00
2014,09,24,01,24,15.00
2014,09,24,01,25,15.00
2014,09,24,01,26,15.00
2014,09,24,01,27,15.00
2014,09,24,01,28,15.00
2014,09,24,01,29,15.00
2014,09,24,01,30,15.00
2014,09,24,01,31,15.00
2014,09,24,01,32,15.00
2014,09,24,01,33,15.00
2014,09,24,01,34,15.00
2014,09,24,01,35,15.00
2014,09,24,01,36,14.90
2014,09,24,01,37,14.90
2014,09,24,01,38,14.90
2014,09,24,01,39,14.90
2014,09,24,01,40,14.90
2014,09,24,01,41,14.90
2014,09,24,01,42,14.80
2014,09,24,01,43,14.80
2014,09,24,01,44,14.80
2014,09,24,01,45,14.80
2014,09,24,01,46,14.70
2014,09,24,01,47,14.70
2014,09,24,01,48,14.70
2014,09,24,01,49,14.70
2014,09,24,01,50,14.70
2014,09,24,01,51,14.70
2014,09,24,01,52,14.70
2014,09,24,01,53,14.70
2014,09,24,01,54,14.70
2014,09,24,01,55,14.70
2014,09,24,01,56,14.70
2014,09,24,01,57,14.70
2014,09,24,01,58,14.70
2014,09,24,01,59,14.70
2014,09,24,02,00,14.80
2014,09,24,02,01,14.80
2014,09,24,02,02,14.80
2014,09,24,02,03,14.90
2014,09,24,02,04,14.90
2014,09,24,02,05,14.90
2014,09,24,02,06,14.90
2014,09,24,02,07,14.90
2014,09,24,02,08,14.90
2014,09,24,02,09,15.00
2014,09,24,02,10,15.00
2014,09,24,02,11,15.00
2014,09,24,02,12,15.00
2014,09,24,02,13,15.00
2014,09,24,02,14,15.00
2014,09,24,02,15,15.00
2014,09,24,02,16,15.00
2014,09,24,02,17,15.00
2014,09,24,02,18,15.00
2014,09,24,02,19,15.00
2014,09,24,02,20,15.00
2014,09,24,02,21,15.00
2014,09,24,02,22,15.00
2014,09,24,02,23,15.00
2014,09,24,02,24,15.00
2014,09,24,02,25,15.00
2014,09,24,02,26,14.90
2014,09,24,02,27,14.90
2014,09,24,02,28,14.90
2014,09,24,02,29,14.90
2014,09,24,02,30,14.80
2014,09,24,02,31,14.80
2014,09,24,02,32,14.80
2014,09,24,02,33,14.80
2014,09,24,02,34,14.80
2014,09,24,02,35,14.90
2014,09,24,02,36,14.90
2014,09,24,02,37,14.90
2014,09,24,02,38,14.90
2014,09,24,02,39,14.90
2014,09,24,02,40,14.90
2014,09,24,02,41,14.90
2014,09,24,02,42,14.90
2014,09,24,02,43,15.00
2014,09,24,02,44,15.00
2014,09,24,02,45,15.00
2014,09,24,02,46,15.00
2014,09,24,02,47,15.00
2014,09,24,02,48,15.00
2014,09,24,02,49,15.00
2014,09,24,02,50,15.00
2014,09,24,02,51,14.90
2014,09,24,02,52,14.90
2014,09,24,02,53,14.90
2014,09,24,02,54,14.90
2014,09,24,02,55,14.90
2014,09,24,02,56,14.90
2014,09,24,02,57,14.90
2014,09,24,02,58,14.90
2014,09,24,02,59,14.90
2014,09,24,03,00,14.90
2014,09,24,03,01,14.90
2014,09,24,03,02,14.90
2014,09,24,03,03,15.00
2014,09,24,10,34,15.00
2014,09,24,10,35,15.00
2014,09,24,10,36,15.00
2014,09,24,10,37,15.00
2014,09,24,10,38,15.00
2014,09,24,10,39,14.90
2014,09,24,10,40,15.00
2014,09,24,10,41,15.00
2014,09,24,10,42,15.00
2014,09,24,10,43,15.00
2014,09,24,10,44,15.00
2014,09,24,10,45,15.00
2014,09,24,10,46,15.00
2014,09,24,10,47,15.00
2014,09,24,10,48,15.00
2014,09,24,10,49,15.00
2014,09,24,10,50,15.00
2014,09,24,10,51,15.00
2014,09,24,10,52,15.00
2014,09,24,10,53,15.00
2014,09,24,10,54,15.00
2014,09,24,10,55,15.00
2014,09,24,10,56,15.00
2014,09,24,10,57,15.00
2014,09,24,10,58,15.00
2014,09,24,10,59,15.00
2014,09,24,11,00,15.00
2014,09,24,11,01,15.00
2014,09,24,11,02,15.00
2014,09,24,11,03,15.10
2014,09,24,11,04,15.10
2014,09,24,11,05,15.00
2014,09,24,11,06,15.00
2014,09,24,11,07,15.00
2014,09,24,11,08,15.00
2014,09,24,11,09,15.00
2014,09,24,11,10,15.00
2014,09,24,11,11,15.00
2014,09,24,11,12,14.90
2014,09,24,11,13,14.90
2014,09,24,11,14,14.80
2014,09,24,11,15,14.80
2014,09,24,11,16,14.80
2014,09,24,11,17,14.70
2014,09,24,11,18,14.70
2014,09,24,11,19,14.60
2014,09,24,11,20,14.50
2014,09,24,11,21,14.40
2014,09,24,11,22,14.30
2014,09,24,11,23,14.20
2014,09,24,11,24,14.10
2014,09,24,11,25,14.10
2014,09,24,11,26,14.00
2014,09,24,11,27,14.00
2014,09,24,11,28,13.90
2014,09,24,11,29,13.90
2014,09,24,11,30,13.90
2014,09,24,11,31,13.90
2014,09,24,11,32,13.90
2014,09,24,11,33,14.00
2014,09,24,11,34,14.00
2014,09,24,11,35,14.10
2014,09,24,11,36,14.10
2014,09,24,11,37,14.10
2014,09,24,11,38,14.10
2014,09,24,11,39,14.10
2014,09,24,11,40,14.10
2014,09,24,11,41,14.00
2014,09,24,11,42,13.90
2014,09,24,11,43,13.70
2014,09,24,11,44,13.60
2014,09,24,11,45,13.50
2014,09,24,11,46,13.50
2014,09,24,11,47,13.60
2014,09,24,11,48,13.60
2014,09,24,11,49,13.60
2014,09,24,11,50,13.60
2014,09,24,11,51,13.60
2014,09,24,11,52,13.60
2014,09,24,11,53,13.60
2014,09,24,11,54,13.60
2014,09,24,11,55,13.70
2014,09,24,11,56,13.70
2014,09,24,11,57,13.70
2014,09,24,11,58,13.70
2014,09,24,11,59,13.60
2014,09,24,12,00,13.60
2014,09,24,12,01,13.50
2014,09,24,12,02,13.50
2014,09,24,12,03,13.40
2014,09,24,12,04,13.40
2014,09,24,12,05,13.40
2014,09,24,12,06,13.40
2014,09,24,12,07,13.40
2014,09,24,12,08,13.50
2014,09,24,12,09,13.50
2014,09,24,12,10,13.50
2014,09,24,12,11,13.60
2014,09,24,12,12,13.60
2014,09,24,12,13,13.60
2014,09,24,12,14,13.70
2014,09,24,12,15,13.70
2014,09,24,12,16,13.80
2014,09,24,12,17,13.80
2014,09,24,12,18,13.90
2014,09,24,12,19,13.90
2014,09,24,12,20,14.00
2014,09,24,12,21,14.00
2014,09,24,12,22,14.10
2014,09,24,12,23,14.10
2014,09,24,12,24,14.20
2014,09,24,12,25,14.20
2014,09,24,12,26,14.20
2014,09,24,12,27,14.20
2014,09,24,12,28,14.30
2014,09,24,12,29,14.30
2014,09,24,12,30,14.30
2014,09,24,12,31,14.40
2014,09,24,12,32,14.50
2014,09,24,12,33,14.50
2014,09,24,12,34,14.60
2014,09,24,12,35,14.70
2014,09,24,12,36,14.70
2014,09,24,12,37,14.70
2014,09,24,12,38,14.70
2014,09,24,12,39,14.70
2014,09,24,12,40,14.70
2014,09,24,12,41,14.80
2014,09,24,12,42,14.80
2014,09,24,12,43,14.90
2014,09,24,12,44,15.00
2014,09,24,12,45,15.00
2014,09,24,12,46,15.00
2014,09,24,12,47,15.00
2014,09,24,12,48,15.00
2014,09,24,12,49,15.00
2014,09,24,12,50,15.10
2014,09,24,12,51,15.10
2014,09,24,12,52,15.20
2014,09,24,12,53,15.20
2014,09,24,12,54,15.30
2014,09,24,12,55,15.30
2014,09,24,12,56,15.30
2014,09,24,12,57,15.40
2014,09,24,12,58,15.40
2014,09,24,12,59,15.40
2014,09,24,13,00,15.50
2014,09,24,13,01,15.50
2014,09,24,13,02,15.60
2014,09,24,13,03,15.60
2014,09,24,13,04,15.70
2014,09,24,13,05,15.70
2014,09,24,13,06,15.70
2014,09,24,13,07,15.70
2014,09,24,13,08,15.70
2014,09,24,13,09,15.80
2014,09,24,13,10,15.80
2014,09,24,13,11,15.80
2014,09,24,13,12,15.80
2014,09,24,13,13,15.80
2014,09,24,13,14,15.80
2014,09,24,13,15,15.80
2014,09,24,13,16,15.80
2014,09,24,13,17,15.80
2014,09,24,13,18,15.80
2014,09,24,13,19,15.80
2014,09,24,13,20,15.80
2014,09,24,13,21,15.80
2014,09,24,13,22,15.90
2014,09,24,13,23,15.90
2014,09,24,13,24,16.00
2014,09,24,13,25,16.00
2014,09,24,13,26,16.10
2014,09,24,13,27,16.10
2014,09,24,13,28,16.20
2014,09,24,13,29,16.20
2014,09,24,13,30,16.30
2014,09,24,13,31,16.30
2014,09,24,13,32,16.40
2014,09,24,13,33,16.40
2014,09,24,13,34,16.40
2014,09,24,13,35,16.40
2014,09,24,13,36,16.50
2014,09,24,13,37,16.50
2014,09,24,13,38,16.60
2014,09,24,13,39,16.60
2014,09,24,13,40,16.60
2014,09,24,13,41,16.60
2014,09,24,13,42,16.70
2014,09,24,13,43,16.80
2014,09,24,13,44,16.80
2014,09,24,13,45,16.90
2014,09,24,13,46,16.90
2014,09,24,13,47,16.90
2014,09,24,13,48,16.90
2014,09,24,13,49,16.70
2014,09,24,13,50,16.60
2014,09,24,13,51,16.60
2014,09,24,13,52,16.60
2014,09,24,13,53,16.70
2014,09,24,13,54,16.80
2014,09,24,13,55,16.90
2014,09,24,13,56,16.90
2014,09,24,13,57,17.00
2014,09,24,13,58,17.10
2014,09,24,13,59,17.10
2014,09,24,14,00,17.10
2014,09,24,14,01,17.10
2014,09,24,14,02,17.10
2014,09,24,14,03,17.10
2014,09,24,14,04,17.00
2014,09,24,14,05,16.90
2014,09,24,14,06,17.00
2014,09,24,14,07,17.00
2014,09,24,14,08,16.90
2014,09,24,14,09,16.80
2014,09,24,14,10,16.80
2014,09,24,14,11,16.90
2014,09,24,14,12,16.80
2014,09,24,14,13,16.80
2014,09,24,14,14,16.80
2014,09,24,14,15,16.80
2014,09,24,14,16,16.90
2014,09,24,14,17,17.00
2014,09,24,14,18,17.00
2014,09,24,14,19,17.10
2014,09,24,14,20,17.20
2014,09,24,14,21,17.20
2014,09,24,14,22,17.30
2014,09,24,14,23,17.30
2014,09,24,14,24,17.40
2014,09,24,14,25,17.40
2014,09,24,14,26,17.40
2014,09,24,14,27,17.40
2014,09,24,14,28,17.40
2014,09,24,14,29,17.30
2014,09,24,14,30,17.30
2014,09,24,14,31,17.30
2014,09,24,14,32,17.30
2014,09,24,14,33,17.30
2014,09,24,14,34,17.30
2014,09,24,14,35,17.20
2014,09,24,14,36,17.20
2014,09,24,14,37,17.20
2014,09,24,14,38,17.20
2014,09,24,14,39,17.20
2014,09,24,14,40,17.20
2014,09,24,14,41,17.10
2014,09,24,14,42,17.10
2014,09,24,14,43,17.10
2014,09,24,14,44,17.10
2014,09,24,14,45,17.10
2014,09,24,14,46,17.00
2014,09,24,14,47,16.90
2014,09,24,14,48,16.90
2014,09,24,14,49,16.80
2014,09,24,14,50,16.70
2014,09,24,14,51,16.70
2014,09,24,14,52,16.70
2014,09,24,14,53,16.70
2014,09,24,14,54,16.70
2014,09,24,14,55,16.70
2014,09,24,14,56,16.70
2014,09,24,14,57,16.70
2014,09,24,14,58,16.80
2014,09,24,14,59,16.80
2014,09,24,15,00,16.80
2014,09,24,15,01,16.80
2014,09,24,15,02,16.80
2014,09,24,15,03,16.80
2014,09,24,15,04,16.80
2014,09,24,15,05,16.80
2014,09,24,15,06,16.80
2014,09,24,15,07,16.80
2014,09,24,15,08,16.80
2014,09,24,15,09,16.90
2014,09,24,15,10,16.90
2014,09,24,15,11,16.90
2014,09,24,15,12,16.90
2014,09,24,15,13,16.90
2014,09,24,15,14,16.90
2014,09,24,15,15,17.00
2014,09,24,15,16,17.00
2014,09,24,15,17,17.10
2014,09,24,15,18,17.10
2014,09,24,15,19,17.10
2014,09,24,15,20,17.20
2014,09,24,15,21,17.20
2014,09,24,15,22,17.20
2014,09,24,15,23,17.30
2014,09,24,15,24,17.30
2014,09,24,15,25,17.30
2014,09,24,15,26,17.30
2014,09,24,15,27,17.30
2014,09,24,15,28,17.30
2014,09,24,15,29,17.30
2014,09,24,15,30,17.30
2014,09,24,15,31,17.30
2014,09,24,15,32,17.30
2014,09,24,15,33,17.30
2014,09,24,15,34,17.30
2014,09,24,15,35,17.30
2014,09,24,15,36,17.30
2014,09,24,15,37,17.30
2014,09,24,15,38,17.30
2014,09,24,15,39,17.30
2014,09,24,15,40,17.30
2014,09,24,15,41,17.30
2014,09,24,15,42,17.30
2014,09,24,15,43,17.30
2014,09,24,15,44,17.30
2014,09,24,15,45,17.30
2014,09,24,15,46,17.30
2014,09,24,15,47,17.40
2014,09,24,15,48,17.40
2014,09,24,15,49,17.40
2014,09,24,15,50,17.40
2014,09,24,15,51,17.40
2014,09,24,15,52,17.40
2014,09,24,15,53,17.50
2014,09,24,15,54,17.50
2014,09,24,15,55,17.50
2014,09,24,15,56,17.50
2014,09,24,15,57,17.50
2014,09,24,15,58,17.60
2014,09,24,15,59,17.60
2014,09,24,16,00,17.60
2014,09,24,16,01,17.60
2014,09,24,16,02,17.60
2014,09,24,16,03,17.60
2014,09,24,16,04,17.60
2014,09,24,16,05,17.60
2014,09,24,16,06,17.60
2014,09,24,16,07,17.60
2014,09,24,16,08,17.60
2014,09,24,16,09,17.60
2014,09,24,16,10,17.60
2014,09,24,16,11,17.70
2014,09,24,16,12,17.70
2014,09,24,16,13,17.70
2014,09,24,16,14,17.70
2014,09,24,16,15,17.70
2014,09,24,16,16,17.60
2014,09,24,16,17,17.60
2014,09,24,16,18,17.60
2014,09,24,16,19,17.60
2014,09,24,16,20,17.60
2014,09,24,16,21,17.60
2014,09,24,16,22,17.60
2014,09,24,16,23,17.60
2014,09,24,16,24,17.60
2014,09,24,16,25,17.60
2014,09,24,16,26,17.70
2014,09,24,16,27,17.70
2014,09,24,16,28,17.70
2014,09,24,16,29,17.70
2014,09,24,16,30,17.70
2014,09,24,16,31,17.70
2014,09,24,16,32,17.70
2014,09,24,16,33,17.80
2014,09,24,16,34,17.80
2014,09,24,16,35,17.80
2014,09,24,16,36,17.80
2014,09,24,16,37,17.90
2014,09,24,16,38,17.90
2014,09,24,16,39,17.90
2014,09,24,16,40,17.90
2014,09,24,16,41,17.80
2014,09,24,16,42,17.80
2014,09,24,16,43,17.80
2014,09,24,16,44,17.90
2014,09,24,16,45,17.80
2014,09,24,16,46,17.80
2014,09,24,16,47,17.80
2014,09,24,16,48,17.80
2014,09,24,16,49,17.80
2014,09,24,16,50,17.80
2014,09,24,16,51,17.80
2014,09,24,16,52,17.80
2014,09,24,16,53,17.80
2014,09,24,16,54,17.80
2014,09,24,16,55,17.70
2014,09,24,16,56,17.70
2014,09,24,16,57,17.60
2014,09,24,16,58,17.60
2014,09,24,16,59,17.60
2014,09,24,17,00,17.60
2014,09,24,17,01,17.60
2014,09,24,17,02,17.50
2014,09,24,17,03,17.50
2014,09,24,17,04,17.50
2014,09,24,17,05,17.60
2014,09,24,17,06,17.60
2014,09,24,17,07,17.60
2014,09,24,17,08,17.60
2014,09,24,17,09,17.60
2014,09,24,17,10,17.60
2014,09,24,17,11,17.60
2014,09,24,17,12,17.60
2014,09,24,17,13,17.60
2014,09,24,17,14,17.60
2014,09,24,17,15,17.50
2014,09,24,17,16,17.50
2014,09,24,17,17,17.50
2014,09,24,17,18,17.50
2014,09,24,17,19,17.50
2014,09,24,17,20,17.50
2014,09,24,17,21,17.50
2014,09,24,17,22,17.40
2014,09,24,17,23,17.40
2014,09,24,17,24,17.40
2014,09,24,17,25,17.40
2014,09,24,17,26,17.40
2014,09,24,17,27,17.40
2014,09,24,17,28,17.30
2014,09,24,17,29,17.30
2014,09,24,17,30,17.30
2014,09,24,17,31,17.30
2014,09,24,17,32,17.30
2014,09,24,17,33,17.30
2014,09,24,17,34,17.30
2014,09,24,17,35,17.40
2014,09,24,17,36,17.40
2014,09,24,17,37,17.40
2014,09,24,17,38,17.40
2014,09,24,17,39,17.40
2014,09,24,17,40,17.40
2014,09,24,17,41,17.40
2014,09,24,17,42,17.40
2014,09,24,17,43,17.40
2014,09,24,17,44,17.40
2014,09,24,17,45,17.40
2014,09,24,17,46,17.40
2014,09,24,17,47,17.40
2014,09,24,17,48,17.40
2014,09,24,17,49,17.40
2014,09,24,17,50,17.40
2014,09,24,17,51,17.40
2014,09,24,17,52,17.40
2014,09,24,17,53,17.40
2014,09,24,17,54,17.40
2014,09,24,17,55,17.40
2014,09,24,17,56,17.40
2014,09,24,17,57,17.40
2014,09,24,17,58,17.40
2014,09,24,17,59,17.40
2014,09,24,18,00,17.40
2014,09,24,18,01,17.40
2014,09,24,18,02,17.40
2014,09,24,18,03,17.30
2014,09,24,18,04,17.30
2014,09,24,18,05,17.30
2014,09,24,18,06,17.30
2014,09,24,18,07,17.30
2014,09,24,18,08,17.30
2014,09,24,18,09,17.20
2014,09,24,18,10,17.20
2014,09,24,18,11,17.20
2014,09,24,18,12,17.20
2014,09,24,18,13,17.10
2014,09,24,18,14,17.10
2014,09,24,18,15,17.10
2014,09,24,18,16,17.10
2014,09,24,18,17,17.00
2014,09,24,18,18,17.00
2014,09,24,18,19,16.90
2014,09,24,18,20,16.90
2014,09,24,18,21,16.90
2014,09,24,18,22,16.80
2014,09,24,18,23,16.80
2014,09,24,18,24,16.80
2014,09,24,18,25,16.70
2014,09,24,18,26,16.70
2014,09,24,18,27,16.70
2014,09,24,18,28,16.60
2014,09,24,18,29,16.60
2014,09,24,18,30,16.50
2014,09,24,18,31,16.50
2014,09,24,18,32,16.50
2014,09,24,18,33,16.40
2014,09,24,18,34,16.40
2014,09,24,18,35,16.40
2014,09,24,18,36,16.30
2014,09,24,18,37,16.30
2014,09,24,18,38,16.30
2014,09,24,18,39,16.30
2014,09,24,18,40,16.30
2014,09,24,18,41,16.20
2014,09,24,18,42,16.20
2014,09,24,18,43,16.20
2014,09,24,18,44,16.20
2014,09,24,18,45,16.10
2014,09,24,18,46,16.10
2014,09,24,18,47,16.10
2014,09,24,18,48,16.10
2014,09,24,18,49,16.10
2014,09,24,18,50,16.00
2014,09,24,18,51,16.00
2014,09,24,18,52,16.00
2014,09,24,18,53,15.90
2014,09,24,18,54,15.90
2014,09,24,18,55,15.90
2014,09,24,18,56,15.90
2014,09,24,18,57,15.80
2014,09,24,18,58,15.80
2014,09,24,18,59,15.80
2014,09,24,19,00,15.80
2014,09,24,19,01,15.80
2014,09,24,19,02,15.80
2014,09,24,19,03,15.80
2014,09,24,19,04,15.80
2014,09,24,19,05,15.70
2014,09,24,19,06,15.70
2014,09,24,19,07,15.70
2014,09,24,19,08,15.70
2014,09,24,19,09,15.70
2014,09,24,19,10,15.70
2014,09,24,19,11,15.70
2014,09,24,19,12,15.70
2014,09,24,19,13,15.70
2014,09,24,19,14,15.60
2014,09,24,19,15,15.60
2014,09,24,19,16,15.60
2014,09,24,19,17,15.60
2014,09,24,19,18,15.60
2014,09,24,19,19,15.60
2014,09,24,19,20,15.60
2014,09,24,19,21,15.50
2014,09,24,19,22,15.50
2014,09,24,19,23,15.50
2014,09,24,19,24,15.50
2014,09,24,19,25,15.50
2014,09,24,19,26,15.50
2014,09,24,19,27,15.50
2014,09,24,19,28,15.40
2014,09,24,19,29,15.40
2014,09,24,19,30,15.40
2014,09,24,19,31,15.40
2014,09,24,19,32,15.40
2014,09,24,19,33,15.40
2014,09,24,19,34,15.40
2014,09,24,19,35,15.30
2014,09,24,19,36,15.30
2014,09,24,19,37,15.30
2014,09,24,19,38,15.30
2014,09,24,19,39,15.30
2014,09,24,19,40,15.30
2014,09,24,19,41,15.30
2014,09,24,19,42,15.30
2014,09,24,19,43,15.20
2014,09,24,19,44,15.20
2014,09,24,19,45,15.20
2014,09,24,19,46,15.20
2014,09,24,19,47,15.20
2014,09,24,19,48,15.10
2014,09,24,19,49,15.10
2014,09,24,19,50,15.10
2014,09,24,19,51,15.10
2014,09,24,19,52,15.00
2014,09,24,19,53,15.00
2014,09,24,19,54,15.00
2014,09,24,19,55,15.00
2014,09,24,19,56,15.00
2014,09,24,19,57,15.00
2014,09,24,19,58,15.00
2014,09,24,19,59,15.00
2014,09,24,20,00,15.00
2014,09,24,20,01,15.00
2014,09,24,20,02,15.00
2014,09,24,20,03,15.00
2014,09,24,20,04,15.00
2014,09,24,20,05,15.00
2014,09,24,20,06,15.00
2014,09,24,20,07,15.00
2014,09,24,20,08,15.00
2014,09,24,20,09,15.00
2014,09,24,20,10,15.00
2014,09,24,20,11,15.00
2014,09,24,20,12,15.00
2014,09,24,20,13,15.00
2014,09,24,20,14,15.00
2014,09,24,20,15,15.00
2014,09,24,20,16,15.00
2014,09,24,20,17,15.00
2014,09,24,20,18,15.00
2014,09,24,20,19,15.00
2014,09,24,20,20,15.00
2014,09,24,20,21,15.00
2014,09,24,20,22,15.00
2014,09,24,20,23,15.00
2014,09,24,20,24,15.00
2014,09,24,20,25,15.00
2014,09,24,20,26,15.00
2014,09,24,20,27,15.00
2014,09,24,20,28,15.00
2014,09,24,20,29,15.00
2014,09,24,20,30,15.00
2014,09,24,20,31,15.00
2014,09,24,20,32,15.00
2014,09,24,20,33,15.00
2014,09,24,20,34,15.00
2014,09,24,20,35,15.00
2014,09,24,20,36,15.00
2014,09,24,20,37,15.00
2014,09,24,20,38,15.00
2014,09,24,20,39,15.00
2014,09,24,20,40,15.00
2014,09,24,20,41,15.00
2014,09,24,20,42,15.00
2014,09,24,20,43,15.00
2014,09,24,20,44,15.00
2014,09,24,20,45,15.00
2014,09,24,20,46,15.00
2014,09,24,20,47,15.00
2014,09,24,20,48,15.00
2014,09,24,20,49,15.00
2014,09,24,20,50,15.00
2014,09,24,20,51,15.00
2014,09,24,20,52,15.00
2014,09,24,20,53,15.00
2014,09,24,20,54,15.00
2014,09,24,20,55,15.00
2014,09,24,20,56,15.00
2014,09,24,20,57,15.00
2014,09,24,20,58,15.00
2014,09,24,20,59,15.00
2014,09,24,21,00,15.00
2014,09,24,21,01,15.00
2014,09,24,21,02,14.90
2014,09,24,21,03,14.90
2014,09,24,21,04,14.90
2014,09,24,21,05,14.90
2014,09,24,21,06,14.90
2014,09,24,21,07,14.90
2014,09,24,21,08,14.90
2014,09,24,21,09,14.90
2014,09,24,21,10,14.90
2014,09,24,21,11,14.90
2014,09,24,21,12,14.80
2014,09,24,21,13,14.80
2014,09,24,21,14,14.80
2014,09,24,21,15,14.80
2014,09,24,21,16,14.80
2014,09,24,21,17,14.80
2014,09,24,21,18,14.80
2014,09,24,21,19,14.80
2014,09,24,21,20,14.80
2014,09,24,21,21,14.80
2014,09,24,21,22,14.80
2014,09,24,21,23,14.80
2014,09,24,21,24,14.80
2014,09,24,21,25,14.80
2014,09,24,21,26,14.80
2014,09,24,21,27,14.80
2014,09,24,21,28,14.80
2014,09,24,21,29,14.80
2014,09,24,21,30,14.80
2014,09,24,21,31,14.80
2014,09,24,21,32,14.80
2014,09,24,21,33,14.80
2014,09,24,21,34,14.70
2014,09,24,21,35,14.70
2014,09,24,21,36,14.70
2014,09,24,21,37,14.70
2014,09,24,21,38,14.70
2014,09,24,21,39,14.70
2014,09,24,21,40,14.70
2014,09,24,21,41,14.70
2014,09,24,21,42,14.70
2014,09,24,21,43,14.70
2014,09,24,21,44,14.70
2014,09,24,21,45,14.70
2014,09,24,21,46,14.70
2014,09,24,21,47,14.70
2014,09,24,21,48,14.70
2014,09,24,21,49,14.70
2014,09,24,21,50,14.70
2014,09,24,21,51,14.70
2014,09,24,21,52,14.70
2014,09,24,21,53,14.70
2014,09,24,21,54,14.70
2014,09,24,21,55,14.70
2014,09,24,21,56,14.70
2014,09,24,21,57,14.70
2014,09,24,21,58,14.70
2014,09,24,21,59,14.70
2014,09,24,22,00,14.70
2014,09,24,22,01,14.70
2014,09,24,22,02,14.70
2014,09,24,22,03,14.70
2014,09,24,22,04,14.70
2014,09,24,22,05,14.70
2014,09,24,22,06,14.80
2014,09,24,22,07,14.80
2014,09,24,22,08,14.80
2014,09,24,22,09,14.80
2014,09,24,22,10,14.80
2014,09,24,22,11,14.80
2014,09,24,22,12,14.80
2014,09,24,22,13,14.80
2014,09,24,22,14,14.80
2014,09,24,22,15,14.80
2014,09,24,22,16,14.80
2014,09,24,22,17,14.80
2014,09,24,22,18,14.80
2014,09,24,22,19,14.80
2014,09,24,22,20,14.80
2014,09,24,22,21,14.80
2014,09,24,22,22,14.70
2014,09,24,22,23,14.70
2014,09,24,22,24,14.70
2014,09,24,22,25,14.70
2014,09,24,22,26,14.70
2014,09,24,22,27,14.70
2014,09,24,22,28,14.70
2014,09,24,22,29,14.70
2014,09,24,22,30,14.70
2014,09,24,22,31,14.70
2014,09,24,22,32,14.70
2014,09,24,22,33,14.60
2014,09,24,22,34,14.60
2014,09,24,22,35,14.60
2014,09,24,22,36,14.60
2014,09,24,22,37,14.60
2014,09,24,22,38,14.60
2014,09,24,22,39,14.60
2014,09,24,22,40,14.60
2014,09,24,22,41,14.60
2014,09,24,22,42,14.60
2014,09,24,22,43,14.60
2014,09,24,22,44,14.60
2014,09,24,22,45,14.60
2014,09,24,22,46,14.60
2014,09,24,22,47,14.60
2014,09,24,22,48,14.60
2014,09,24,22,49,14.60
2014,09,24,22,50,14.60
2014,09,24,22,51,14.60
2014,09,24,22,52,14.60
2014,09,24,22,53,14.60
2014,09,24,22,54,14.60
2014,09,24,22,55,14.60
2014,09,24,22,56,14.60
2014,09,24,22,57,14.60
2014,09,24,22,58,14.60
2014,09,24,22,59,14.60
2014,09,24,23,00,14.60
2014,09,24,23,01,14.60
2014,09,24,23,02,14.60
2014,09,24,23,03,14.60
2014,09,24,23,04,14.60
2014,09,24,23,05,14.60
2014,09,24,23,06,14.60
2014,09,24,23,07,14.60
2014,09,24,23,08,14.60
2014,09,24,23,09,14.60
2014,09,24,23,10,14.60
2014,09,24,23,11,14.60
2014,09,24,23,12,14.60
2014,09,24,23,13,14.60
2014,09,24,23,14,14.60
2014,09,24,23,15,14.60
2014,09,24,23,16,14.60
2014,09,24,23,17,14.60
2014,09,24,23,18,14.60
2014,09,24,23,19,14.60
2014,09,24,23,20,14.60
2014,09,24,23,21,14.60
2014,09,24,23,22,14.60
2014,09,24,23,23,14.60
2014,09,24,23,24,14.60
2014,09,24,23,25,14.60
2014,09,24,23,26,14.60
2014,09,24,23,27,14.60
2014,09,24,23,28,14.60
2014,09,24,23,29,14.60
2014,09,24,23,30,14.60
2014,09,24,23,31,14.60
2014,09,24,23,32,14.60
2014,09,24,23,33,14.60
2014,09,24,23,34,14.60
2014,09,24,23,35,14.60
2014,09,24,23,36,14.60
2014,09,24,23,37,14.60
2014,09,24,23,38,14.60
2014,09,24,23,39,14.60
2014,09,24,23,40,14.60
2014,09,24,23,41,14.60
2014,09,24,23,42,14.60
2014,09,24,23,43,14.60
2014,09,24,23,44,14.60
2014,09,24,23,45,14.60
2014,09,24,23,46,14.60
2014,09,24,23,47,14.60
2014,09,24,23,48,14.70
2014,09,24,23,49,14.70
2014,09,24,23,50,14.70
2014,09,24,23,51,14.70
2014,09,24,23,52,14.70
2014,09,24,23,53,14.70
2014,09,24,23,54,14.70
2014,09,24,23,55,14.70
2014,09,24,23,56,14.70
2014,09,24,23,57,14.70
2014,09,24,23,58,14.70
2014,09,24,23,59,14.70
